Weather History for Santa Rosa, CA

Change the Weather History Date:

Tuesday, January 7, 2014

  Actual Average Record
Temperature  
Mean Temperature 49 °F 46 °F  
Max Temperature 64 °F 56 °F 70 °F (2012)
Min Temperature 34 °F 36 °F 29 °F (2000)
Degree Days  
Heating Degree Days 16    
Month to date heating degree days 121  
Since 1 July heating degree days 1232  
Cooling Degree Days 0    
Month to date cooling degree days 0  
Year to date cooling degree days 0  
Moisture  
Dew Point 35 °F    
Average Humidity 64    
Maximum Humidity 96    
Minimum Humidity 31    
Precipitation  
Precipitation 0.00 in 0.29 in 1.05 in (2005)
Month to date precipitation 0.00 2.11  
Year to date precipitation 0.00 2.11  
Since 1 July precipitation 2.02 16.30  
Sea Level Pressure  
Sea Level Pressure 30.15 in    
Wind  
Wind Speed 3 mph (SSE)    
Max Wind Speed 8 mph    
Max Gust Speed 10 mph    
Visibility 8 miles    
Events      
T = Trace of Precipitation, MM = Missing Value Source: NWS Daily Summary

Daily Weather History Graph

Daily Weather History Graph

Search for Another Location

Airport:

Trip Planner

Search our weather history database for the weather conditions in past years. The results will help you decide how hot, cold, wet, or windy it might be!

Date:

Astronomy

Jan. 07, 2014 Rise Set
Actual Time 7:28 AM PST 5:06 PM PST
Civil Twilight 6:59 AM PST 5:35 PM PST
Nautical Twilight 6:26 AM PST 6:08 PM PST
Astronomical Twilight 5:54 AM PST 6:40 PM PST
Moon 11:26 AM PST (1/7) No Moon Set
Length of Visible Light 10h 36m
Length of Day
9h 37m
Waxing Crescent, 46% of the Moon is Illuminated
Jan 7
Waxing Crescent
Jan 7
First Quarter
Jan 15
Full
Jan 23
Last Quarter
Jan 30
New

Hourly Weather History & Observations

Time (PST) Temp. Windchill Dew Point Humidity Pressure Visibility Wind Dir Wind Speed Gust Speed Precip Events Conditions
12:53 AM 36.0 °F - 30.9 °F 82% 30.17 in 10.0 mi Calm Calm - N/A   Clear
1:53 AM 36.0 °F - 32.0 °F 86% 30.16 in 10.0 mi Calm Calm - N/A   Clear
2:53 AM 35.1 °F 32.2 °F 30.9 °F 85% 30.17 in 10.0 mi NNW 3.5 mph - N/A   Clear
3:53 AM 34.0 °F 31.0 °F 30.0 °F 85% 30.16 in 10.0 mi NNW 3.5 mph - N/A   Clear
4:53 AM 36.0 °F 33.3 °F 30.0 °F 79% 30.15 in 10.0 mi NW 3.5 mph - N/A   Partly Cloudy
5:53 AM 37.9 °F - 30.0 °F 73% 30.14 in 10.0 mi Calm Calm - N/A   Mostly Cloudy
6:53 AM 35.1 °F - 30.0 °F 82% 30.15 in 10.0 mi Calm Calm - N/A   Mostly Cloudy
7:53 AM 35.1 °F - 30.0 °F 82% 30.14 in 10.0 mi Calm Calm - N/A   Mostly Cloudy
8:53 AM 37.9 °F - 33.1 °F 83% 30.18 in 10.0 mi Calm Calm - N/A   Mostly Cloudy
9:53 AM 42.1 °F - 32.0 °F 67% 30.19 in 10.0 mi Calm Calm - N/A   Mostly Cloudy
10:53 AM 50.0 °F - 30.9 °F 48% 30.19 in 10.0 mi Variable 3.5 mph - N/A   Mostly Cloudy
11:53 AM 55.0 °F - 30.9 °F 40% 30.17 in 10.0 mi Calm Calm - N/A   Mostly Cloudy
12:53 PM 59.0 °F - 28.9 °F 32% 30.12 in 10.0 mi SSE 4.6 mph - N/A   Scattered Clouds
1:53 PM 61.0 °F - 30.9 °F 32% 30.11 in 10.0 mi South 3.5 mph - N/A   Scattered Clouds
2:53 PM 63.0 °F - 35.1 °F 35% 30.11 in 10.0 mi Variable 3.5 mph - N/A   Scattered Clouds
3:53 PM 62.1 °F - 39.0 °F 43% 30.11 in 10.0 mi SSE 5.8 mph - N/A   Scattered Clouds
4:53 PM 57.9 °F - 43.0 °F 58% 30.10 in 10.0 mi South 8.1 mph - N/A   Scattered Clouds
5:53 PM 52.0 °F - 44.1 °F 74% 30.09 in 10.0 mi SSE 8.1 mph - N/A   Mostly Cloudy
6:53 PM 48.9 °F - 43.0 °F 80% 30.12 in 10.0 mi SE 6.9 mph - N/A   Clear
7:53 PM 46.9 °F - 43.0 °F 86% 30.14 in 9.0 mi SE 5.8 mph - N/A   Clear
8:53 PM 45.0 °F 42.6 °F 42.1 °F 90% 30.15 in 8.0 mi SE 4.6 mph - N/A   Clear
9:53 PM 42.1 °F 40.2 °F 41.0 °F 96% 30.17 in 5.0 mi NNW 3.5 mph - N/A   Clear
10:45 PM 41.0 °F - 39.9 °F 96% 30.19 in 4.0 mi Calm Calm - N/A   Mostly Cloudy
10:53 PM 42.1 °F - 41.0 °F 96% 30.18 in 3.0 mi Calm Calm - N/A   Mostly Cloudy
11:20 PM 39.9 °F - 39.0 °F 97% 30.19 in 3.0 mi Calm Calm - N/A   Scattered Clouds
11:43 PM 39.9 °F - 39.9 °F 100% 30.18 in 2.5 mi Calm Calm - N/A   Clear
11:53 PM 39.0 °F - 37.9 °F 96% 30.17 in 4.0 mi Calm Calm - N/A   Clear